Location: Lachaise
(45.8833°N, 1.8500°E)
Time: 07:27:42
(UTC+00:00)

Cosmos 2263 Rocket - Pass Details

Date: 07 June 2020
Orbit: 825 x 847 km, 71.0° (Epoch: 04 July)

Event Time Altitude Azimuth Distance (km) Brightness Sun altitude
Rises 02:46:56 0° 321° (NW) 3,385 5.5 -10.6°
Reaches altitude 10° 02:49:58 10° 305° (NW) 2,442 4.6 -10.3°
Maximum altitude 02:53:56 20° 260° (W) 1,819 3.5 -9.8°
Enters shadow 02:57:23 12° 218° (SW) 2,295 3.8 -9.4°
